Wind_Speed
37 34 27 24 27 28 30 31 29 28 27 26 21 29 29 32 23 19 19 20 20 21 24 26 25 27 28 28 27 27 27 26 23 18 18 17 17 16 16 13 11 11 14 16
41 34 30 35 32 32 33 35 33 30 30 30 30 31 33 29 27 25 23 22 21 17 16 22 24 28 28 28 29 27 28 26 25 23 22 18 17 17 17 14 12 11 13 15
39 33 37 38 37 34 33 34 33 32 35 33 38 39 35 31 29 29 22 21 18 19 18 20 24 27 30 30 29 29 28 28 26 24 21 18 16 17 17 15 13 11 11 12
45 41 43 41 41 40 37 31 35 35 38 38 40 46 43 33 29 32 22 18 19 18 18 17 25 29 32 32 32 32 32 30 28 24 22 21 22 23 22 17 14 12 11 11
48 45 44 45 41 42 35 35 35 38 43 42 44 46 44 40 37 33 26 21 20 18 20 20 23 28 34 36 34 34 35 33 29 24 24 23 21 19 18 16 13 12 11 10
53 51 51 47 48 45 42 42 40 44 46 56 47 48 44 41 34 30 32 29 24 25 19 21 25 32 34 38 39 37 36 35 31 28 27 24 21 20 19 17 14 12 11 11
55 55 55 53 50 49 52 50 46 47 54 55 46 51 40 41 37 33 28 27 29 28 22 21 22 24 29 32 36 37 36 34 31 30 29 24 22 23 21 18 14 14 12 11
52 56 57 59 54 54 53 54 52 53 54 51 50 55 40 39 38 41 34 33 33 30 23 22 21 24 27 29 35 34 34 33 33 31 30 25 22 22 20 16 15 16 15 13
43 53 57 60 57 55 58 58 51 55 55 51 56 52 36 46 44 44 38 37 32 27 24 20 21 22 26 30 32 34 34 34 33 32 31 27 24 21 19 18 17 16 16 15
40 46 54 59 59 57 57 58 57 58 60 58 60 48 41 46 42 43 42 42 35 33 31 29 25 23 25 28 34 38 38 37 35 34 33 30 26 23 21 19 18 17 18 16
41 42 47 53 60 59 60 60 63 60 61 61 60 49 43 40 41 48 41 38 36 37 32 29 24 23 26 30 35 37 40 40 39 38 36 33 28 25 22 20 19 19 19 17
49 47 44 45 54 61 60 62 64 66 64 64 63 53 43 35 41 49 43 41 41 37 33 28 25 25 29 30 33 34 38 39 40 38 36 34 32 28 25 24 21 20 20 17
53 53 50 44 47 53 63 62 66 66 65 66 65 57 46 41 44 46 43 44 47 44 37 33 31 27 24 29 32 35 38 38 38 38 37 35 34 30 28 27 25 23 22 19
51 55 55 51 51 54 62 67 65 70 70 66 66 59 49 42 44 48 48 46 49 43 42 39 35 29 26 22 30 34 37 39 38 36 35 34 34 33 32 30 27 26 23 20
47 51 55 53 52 54 56 65 69 71 71 71 65 59 54 48 45 54 55 54 54 52 48 41 39 35 30 27 27 34 39 40 37 34 33 32 35 37 36 32 29 28 23 22
43 46 49 52 53 55 57 59 67 70 72 75 69 63 53 50 47 52 59 58 56 57 53 49 42 39 35 32 26 32 38 38 35 33 32 35 37 38 37 35 32 30 26 24
24 31 40 47 49 55 54 55 62 71 72 73 70 62 55 52 46 49 56 59 57 53 50 46 44 37 37 32 30 29 36 40 36 33 33 33 36 37 38 37 35 31 29 28
27 29 33 39 42 50 53 54 55 68 72 72 69 63 56 52 49 46 52 60 62 58 55 52 46 41 39 33 31 29 34 39 38 37 33 32 33 35 39 39 36 34 32 30
27 33 29 31 37 45 50 54 55 64 70 71 67 64 58 52 48 48 50 48 58 58 53 49 47 39 37 32 33 30 29 35 37 38 32 31 33 35 38 38 37 35 33 32
26 36 35 32 34 43 49 51 54 55 66 68 65 62 59 56 50 48 48 44 47 56 56 51 51 40 39 38 34 30 30 33 36 37 36 34 34 35 35 37 38 37 34 32
19 28 32 32 36 42 47 46 51 55 63 66 64 61 60 53 50 48 47 44 46 49 55 52 47 46 47 44 38 32 33 34 34 37 40 39 38 37 39 41 42 37 35 32
17 20 25 34 35 40 45 44 46 56 57 58 60 59 57 54 51 47 47 44 44 45 42 36 39 38 40 51 45 37 34 34 35 37 37 40 42 41 41 42 41 39 35 31
2 16 20 30 33 37 40 39 42 50 55 54 56 58 57 56 49 48 46 44 46 45 39 43 38 43 44 45 43 39 36 31 31 31 34 37 40 41 40 41 40 39 36 32
4 9 9 16 27 37 40 41 40 37 47 52 52 54 58 54 50 50 50 51 51 47 49 49 43 43 43 46 43 45 38 32 33 32 34 35 37 38 38 40 40 40 37 32
6 8 13 24 27 38 42 47 44 50 47 49 51 52 60 54 51 52 56 55 52 51 55 53 48 45 47 45 46 43 38 35 31 31 30 28 29 33 34 37 40 42 39 35
4 6 11 12 21 38 43 38 43 33 53 50 48 52 57 53 53 52 57 59 54 57 56 52 50 50 48 46 45 44 42 40 38 39 38 36 37 41 30 31 41 42 45 41
Wind_Direction
238 233 230 236 231 227 228 228 228 225 220 219 207 201 210 204 205 207 195 201 201 197 194 192 190 188 183 178 181 180 179 173 168 173 171 168 163 166 152 145 129 118 113 112
238 233 225 227 225 222 222 222 225 225 221 214 207 202 208 212 207 199 199 200 205 193 191 210 193 192 187 181 182 179 179 176 175 176 178 175 169 170 159 161 141 130 119 114
240 230 226 224 225 225 224 222 222 225 228 215 208 199 205 217 222 224 222 214 224 208 202 200 200 194 192 188 185 184 183 183 179 181 180 174 169 174 172 173 150 143 133 122
234 230 226 223 222 223 221 222 221 220 226 225 217 213 214 214 220 224 221 207 197 201 206 203 203 193 191 194 191 188 185 186 188 187 181 178 177 181 178 174 164 157 152 132
231 230 231 225 223 223 216 222 219 217 224 226 222 219 211 214 216 222 225 207 211 218 214 204 191 200 192 198 195 193 190 189 191 190 186 188 185 181 180 179 175 170 164 145
224 222 228 223 220 220 214 219 218 218 217 225 217 223 209 212 214 210 214 223 229 217 209 207 199 196 200 199 197 197 195 193 192 186 192 192 192 182 183 186 185 184 174 153
223 220 223 226 220 217 218 215 217 221 222 224 219 224 198 211 207 203 210 214 206 210 209 209 206 202 205 206 205 199 199 197 193 191 194 196 189 188 187 191 192 193 187 167
223 222 219 223 219 218 219 220 221 223 225 225 225 226 198 203 204 200 206 204 210 212 208 207 204 205 202 202 207 206 201 201 193 195 197 200 197 197 192 193 195 196 193 184
233 225 221 222 224 218 220 221 220 224 228 227 232 227 205 199 203 195 199 203 205 208 212 213 209 207 211 200 197 205 204 200 199 197 200 201 201 202 198 197 202 202 200 195
241 232 226 220 223 220 222 221 221 222 224 225 230 224 212 205 199 193 198 200 205 219 222 227 220 209 207 209 198 198 201 201 198 201 202 202 201 203 205 202 205 208 211 204
242 241 229 228 221 223 220 221 223 223 226 228 231 221 215 204 199 198 197 204 207 207 215 219 224 221 209 208 204 201 200 201 203 202 202 202 203 201 203 205 211 213 210 207
239 237 236 231 229 222 224 221 222 223 224 227 231 220 218 200 197 202 199 199 198 201 206 213 217 228 220 209 207 207 205 204 203 204 206 206 203 203 203 205 211 213 208 210
233 234 233 230 231 227 223 223 220 224 224 226 229 224 217 209 196 199 202 200 200 195 202 208 218 226 230 215 208 206 205 205 209 210 208 209 208 204 205 207 210 206 207 214
232 229 230 225 225 226 222 220 220 220 224 224 228 225 213 211 200 198 201 203 203 200 206 210 216 224 223 216 211 209 203 205 208 213 217 215 211 209 209 209 213 205 205 213
238 233 230 228 225 225 224 223 221 219 224 225 224 225 217 211 206 200 204 204 205 205 207 210 215 216 224 222 215 209 206 204 208 211 213 214 215 214 213 208 211 208 204 209
244 241 234 229 227 226 222 222 221 221 221 224 223 222 216 214 212 207 206 209 211 212 213 207 207 216 225 224 220 211 208 207 210 211 212 216 215 216 214 209 209 208 204 204
233 237 237 230 227 224 224 221 222 220 221 223 224 221 215 215 213 212 208 211 210 213 217 214 210 214 223 225 228 218 208 209 210 212 215 216 216 217 213 212 208 207 207 208
239 236 237 234 226 225 224 216 219 221 220 222 223 222 214 214 212 214 214 211 212 215 218 213 215 217 216 218 224 226 218 211 210 214 216 218 218 217 216 214 207 209 210 212
243 229 229 227 216 220 221 217 216 219 219 221 221 221 211 212 209 213 217 217 214 215 217 213 208 212 207 214 222 225 225 219 214 216 216 216 217 217 217 214 209 212 214 217
239 218 218 214 203 206 218 219 214 216 222 220 220 219 213 211 211 211 214 216 214 217 215 215 214 207 213 215 212 224 227 223 218 217 219 216 217 216 216 215 215 215 214 215
231 214 213 207 201 198 204 213 214 216 217 218 218 216 215 212 208 209 213 211 214 215 216 219 219 219 208 205 207 209 222 229 222 218 219 219 217 217 214 214 218 220 220 221
218 202 217 212 197 191 198 204 209 211 214 217 217 215 213 212 209 205 210 208 211 208 212 207 209 219 213 203 202 205 217 223 227 222 219 219 219 219 219 219 219 221 224 224
172 220 212 209 191 191 194 203 210 209 212 213 214 212 208 213 207 202 206 204 200 198 200 192 203 194 190 192 201 205 217 215 220 221 227 223 222 224 225 223 222 220 222 220
251 207 199 194 207 194 194 200 204 200 214 210 211 208 207 212 207 201 202 200 197 198 191 192 199 196 199 197 204 208 215 217 213 213 215 218 221 226 226 228 225 224 224 221
113 174 167 186 201 200 201 208 203 193 212 207 207 205 208 210 207 201 199 200 200 199 191 194 197 202 204 200 206 215 219 220 220 217 214 214 219 222 224 228 229 226 224 219
217 166 164 144 185 204 210 220 226 210 206 206 198 203 209 208 209 205 201 201 200 194 195 193 197 199 206 207 207 213 217 219 219 221 215 216 222 233 211 223 228 233 231 224
Height
5821 5826 5836 5839 5840 5842 5846 5850 5854 5860 5865 5868 5871 5873 5878 5880 5882 5885 5886 5888 5889 5893 5894 5896 5900 5903 5906 5909 5913 5917 5920 5923 5927 5931 5935 5937 5938 5940 5942 5944 5945 5946 5946 5946
5813 5821 5826 5827 5830 5834 5837 5842 5848 5853 5858 5862 5866 5870 5872 5876 5878 5879 5882 5884 5886 5891 5892 5896 5899 5902 5906 5908 5911 5916 5920 5923 5925 5928 5932 5936 5938 5941 5943 5945 5946 5948 5948 5947
5803 5815 5814 5817 5822 5827 5832 5837 5843 5847 5849 5856 5859 5860 5866 5872 5875 5878 5880 5882 5884 5887 5888 5891 5896 5900 5903 5907 5911 5914 5918 5922 5924 5926 5930 5934 5939 5941 5942 5944 5945 5948 5949 5948
5791 5798 5803 5807 5813 5818 5824 5831 5833 5838 5840 5846 5851 5855 5860 5865 5871 5874 5879 5882 5883 5884 5886 5888 5892 5895 5901 5905 5907 5911 5915 5919 5923 5925 5930 5933 5936 5939 5941 5943 5944 5947 5948 5949
5783 5789 5793 5799 5807 5808 5821 5821 5825 5829 5830 5836 5840 5846 5855 5858 5862 5870 5878 5880 5881 5882 5884 5884 5887 5893 5896 5900 5905 5908 5912 5916 5920 5925 5928 5931 5934 5939 5942 5943 5944 5946 5947 5948
5768 5775 5779 5789 5793 5800 5808 5810 5814 5816 5821 5816 5831 5836 5846 5851 5859 5867 5871 5875 5877 5878 5880 5882 5883 5886 5891 5894 5899 5904 5909 5913 5918 5923 5927 5930 5933 5937 5940 5942 5944 5946 5948 5948
5753 5761 5768 5774 5784 5790 5793 5798 5803 5806 5805 5811 5827 5825 5842 5847 5854 5861 5865 5870 5873 5874 5877 5879 5881 5885 5889 5893 5898 5902 5907 5911 5916 5921 5925 5929 5933 5936 5938 5941 5944 5946 5948 5949
5739 5748 5754 5760 5770 5779 5783 5789 5795 5798 5800 5811 5818 5812 5833 5844 5848 5853 5858 5862 5865 5870 5873 5876 5877 5880 5884 5889 5894 5900 5904 5909 5913 5918 5923 5927 5931 5934 5936 5940 5943 5945 5947 5948
5728 5733 5741 5748 5757 5767 5772 5775 5791 5787 5793 5804 5803 5814 5832 5831 5837 5845 5852 5856 5863 5867 5870 5873 5875 5877 5881 5883 5889 5896 5901 5905 5910 5915 5919 5924 5929 5932 5935 5938 5941 5943 5946 5946
5717 5723 5727 5735 5744 5753 5761 5769 5770 5775 5781 5789 5792 5809 5821 5828 5835 5841 5845 5852 5858 5863 5866 5869 5871 5874 5876 5880 5884 5888 5894 5900 5905 5910 5915 5920 5925 5928 5932 5936 5939 5941 5944 5946
5706 5710 5719 5724 5730 5738 5747 5750 5758 5767 5773 5780 5786 5803 5813 5824 5832 5835 5841 5847 5851 5856 5863 5866 5868 5870 5872 5875 5879 5884 5888 5894 5900 5904 5909 5915 5921 5925 5929 5933 5936 5939 5941 5944
5689 5697 5705 5713 5717 5726 5731 5739 5744 5751 5763 5770 5775 5794 5807 5819 5824 5829 5834 5840 5844 5851 5857 5861 5864 5865 5869 5872 5876 5881 5885 5891 5895 5900 5905 5910 5915 5920 5925 5929 5932 5936 5938 5941
5673 5679 5689 5701 5706 5712 5717 5725 5735 5743 5751 5757 5766 5785 5798 5810 5817 5824 5829 5834 5837 5844 5850 5853 5856 5861 5864 5870 5872 5876 5881 5887 5892 5896 5900 5905 5911 5916 5921 5925 5928 5932 5935 5938
5655 5664 5672 5684 5688 5694 5703 5712 5722 5729 5736 5749 5755 5775 5791 5800 5808 5813 5819 5826 5833 5839 5844 5847 5851 5856 5860 5864 5868 5872 5876 5881 5887 5892 5898 5903 5908 5912 5916 5921 5925 5929 5932 5935
5642 5648 5656 5667 5676 5683 5690 5699 5709 5717 5726 5734 5750 5763 5779 5789 5798 5803 5809 5815 5822 5829 5835 5842 5848 5852 5856 5859 5863 5867 5870 5875 5882 5887 5893 5899 5903 5907 5911 5916 5921 5925 5928 5931
5630 5636 5642 5652 5660 5667 5676 5684 5694 5707 5716 5721 5736 5750 5769 5781 5790 5797 5804 5809 5815 5821 5828 5832 5840 5847 5851 5855 5859 5864 5867 5873 5878 5883 5889 5892 5896 5900 5907 5911 5916 5921 5924 5927
5621 5625 5630 5639 5643 5653 5666 5678 5686 5696 5704 5714 5725 5743 5759 5769 5777 5786 5794 5801 5808 5815 5822 5829 5836 5843 5848 5853 5856 5859 5864 5868 5874 5879 5882 5886 5891 5896 5902 5906 5911 5916 5920 5922
5614 5616 5620 5628 5634 5643 5652 5666 5676 5679 5691 5702 5716 5733 5749 5759 5770 5776 5782 5790 5798 5806 5813 5822 5830 5836 5843 5848 5851 5854 5858 5863 5868 5872 5876 5881 5886 5891 5896 5901 5907 5910 5915 5918
5604 5607 5614 5618 5623 5634 5643 5653 5663 5670 5683 5694 5707 5722 5741 5751 5761 5767 5773 5781 5791 5800 5808 5817 5824 5831 5836 5842 5848 5850 5854 5858 5861 5867 5873 5877 5881 5886 5891 5897 5901 5905 5909 5913
5593 5597 5604 5611 5618 5624 5634 5646 5657 5666 5672 5685 5699 5715 5731 5740 5750 5759 5766 5776 5782 5790 5799 5809 5818 5826 5831 5837 5842 5845 5849 5852 5858 5864 5869 5872 5876 5881 5887 5892 5896 5899 5903 5907
5587 5592 5599 5603 5607 5615 5626 5637 5649 5656 5666 5677 5692 5707 5721 5733 5743 5751 5759 5768 5774 5783 5791 5801 5810 5816 5823 5830 5836 5840 5844 5848 5853 5856 5861 5867 5872 5876 5880 5883 5889 5895 5898 5902
5584 5590 5594 5597 5602 5611 5622 5631 5639 5646 5657 5670 5684 5700 5715 5725 5734 5744 5751 5760 5767 5776 5785 5793 5800 5806 5811 5820 5827 5833 5837 5841 5844 5849 5855 5860 5865 5870 5874 5878 5883 5889 5893 5898
5586 5587 5590 5597 5603 5611 5619 5627 5633 5642 5652 5665 5678 5693 5707 5717 5727 5737 5746 5753 5762 5770 5778 5788 5793 5800 5806 5813 5819 5823 5829 5834 5839 5844 5850 5854 5859 5864 5868 5873 5877 5881 5886 5891
5590 5590 5592 5598 5602 5607 5614 5621 5629 5638 5648 5660 5673 5687 5698 5709 5720 5730 5739 5747 5755 5763 5771 5780 5788 5795 5801 5807 5812 5819 5824 5829 5833 5838 5842 5846 5852 5857 5861 5866 5871 5876 5880 5886
5592 5592 5592 5596 5600 5605 5610 5613 5619 5634 5643 5655 5667 5679 5689 5701 5711 5722 5730 5739 5747 5755 5764 5772 5780 5788 5794 5799 5807 5812 5817 5823 5827 5831 5835 5840 5845 5849 5854 5859 5863 5868 5873 5878
5593 5593 5593 5593 5598 5603 5607 5612 5619 5625 5639 5650 5663 5673 5681 5693 5703 5713 5724 5732 5740 5747 5755 5764 5773 5779 5786 5793 5800 5806 5811 5815 5819 5823 5826 5830 5834 5837 5848 5852 5855 5859 5865 5869